Content
SEND FEEDBACK

Daily
Averages
Monthly
Summary
United States of America

ST. LOUIS, MISSOURI


Home > North America > United States > Missouri
Elevation: 163 meters     Latitude: 38 45N     Longitude: 090 22W

WEATHER
 
SELECT A DAY
Number of Records: 196,364;   Date Range: 1/1/95 - 7/26/14
 
SHARE

PRINT THIS DATA

[ ← Previous Day ]
WEATHER ALMANAC - 12 FEBRUARY, 2014
[ Next Day → ]
[ °F ]   °C
Weather ElementAverageHighLow
Temperature-9.4 °C0.6 °C (2:54 pm)-19.4 °C (4:54 am)
Dewpoint-14.9 °C-8.9 °C (3:54 pm)-22.2 °C (4:54 am)
Humidity66.9 %83 % (2:54 am)38 % (12:54 pm)
Barometer1022.4 hPa1028.8 hPa (1:54 am)1017.6 hPa (11:54 pm)
Wind Speed2.1 km/h11.1 km/h (3:54 pm)
Weather ElementAverage
Visibility16.1 km
Wind DirectionNNE (29.6 °)

Weather ElementTotal
Precipitation---
Heating Degree Days27.7 (Base 18.3)
Averaged from 23 records on 12 February, 2014
WEATHER CONDITIONS BREAKOUT
WIND DIRECTION BREAKOUT
WEATHER BY HOUR - 12 FEBRUARY, 2014
[ °F ]   °C
Local TimeTemperatureDewpointHumidityBarometerVisibilityWind DirectionWind SpeedGust SpeedPrecipitationEventsConditions
1:54 AM-17.2 °C-20 °C79 %1028.8 hPa16.1 kmCalmClear
2:54 AM-17.2 °C-19.4 °C83 %1027.4 hPa16.1 kmCalmClear
3:54 AM-17.2 °C-20 °C79 %1026.8 hPa16.1 kmCalmClear
4:54 AM-19.4 °C-22.2 °C79 %1026.4 hPa16.1 kmCalmClear
5:54 AM-18.9 °C-21.7 °C79 %1026.1 hPa16.1 kmCalmClear
6:54 AM-18.9 °C-21.7 °C79 %1026.1 hPa16.1 kmCalmClear
7:54 AM-16.1 °C-19.4 °C76 %1025.7 hPa16.1 kmCalmClear
8:54 AM-12.8 °C-16.7 °C73 %1026.1 hPa14.5 kmWest (270°)5.6 km/hClear
9:54 AM-10 °C-15 °C67 %1025.7 hPa16.1 kmCalmClear
10:54 AM-6.7 °C-13.9 °C57 %1024.4 hPa16.1 kmCalmClear
11:54 AM-2.8 °C-12.2 °C49 %1023.4 hPa16.1 kmCalmClear
12:54 PM-0.6 °C-13.3 °C38 %1021.7 hPa16.1 kmCalmClear
1:54 PM-1.1 °C-11.1 °C47 %1020.3 hPa16.1 kmEast (80°)7.4 km/hClear
2:54 PM0.6 °C-11.7 °C40 %1019.6 hPa16.1 kmENE (70°)9.3 km/hMostly Cloudy
3:54 PM0.6 °C-8.9 °C50 %1019 hPa16.1 kmEast (80°)11.1 km/hScattered Clouds
4:54 PM-0.6 °C-9.4 °C52 %1018.6 hPa16.1 kmENE (70°)9.3 km/hScattered Clouds
5:54 PM-3.9 °C-10.6 °C60 %1019 hPa16.1 kmESE (110°)5.6 km/hClear
6:54 PM-6.1 °C-10.6 °C71 %1019.6 hPa16.1 kmCalmClear
7:54 PM-6.7 °C-11.7 °C68 %1019.6 hPa16.1 kmCalmClear
8:54 PM-7.2 °C-11.7 °C71 %1018.6 hPa16.1 kmCalmClear
9:54 PM-10.6 °C-13.3 °C81 %1017.9 hPa16.1 kmCalmClear
10:54 PM-10.6 °C-13.3 °C81 %1017.9 hPa16.1 kmCalmClear
11:54 PM-12.2 °C-15 °C80 %1017.6 hPa16.1 kmCalmClear
Hourly data recorded from KSUS, located 0 kilometers away from St. Louis, Missouri







STORIES FROM OUR PARTNERS